When you browse on this site, cookies collect data to enhance your experience and personalize the content and advertising you see.
Visit our Privacy Policy to learn more. By continuing to use the site, you agree to this use of cookies and data.
  • In United Kingdom
  • List of Countries
  • For 7 days
  • Water Temperature
  • Satellite Maps
  • Weather Map
  • Weather Widgets
  • user-avatar
    Login

    Hourly Weather Cambridge

    Today, 15 December, Saturday

    Time Temperature Precipitation Wind Pressure Humidity
    00:00 0°C° 0 mm 3 mps 765 mmHg 79%
    01:00 0°C° 0 mm 3 mps 765 mmHg 78%
    02:00 -1°C° 0 mm 4 mps 764 mmHg 78%
    03:00 -1°C° 0 mm 4 mps 764 mmHg 78%
    04:00 -1°C° 0 mm 4 mps 764 mmHg 77%
    05:00 -1°C° 0 mm 5 mps 763 mmHg 76%
    06:00 -1°C° 0 mm 5 mps 763 mmHg 74%
    07:00 -2°C° 0 mm 6 mps 762 mmHg 73%
    08:00 -2°C° 0 mm 6 mps 762 mmHg 72%
    09:00 -2°C° 0 mm 7 mps 762 mmHg 70%
    10:00 -1°C° 0 mm 8 mps 761 mmHg 70%
    11:00 -1°C° 0 mm 8 mps 760 mmHg 69%
    12:00 -1°C° 0 mm 9 mps 759 mmHg 67%
    13:00 -1°C° 0.2 mm 9 mps 757 mmHg 70%
    14:00 -2°C° 0.2 mm 10 mps 756 mmHg 72%
    15:00 -2°C° 0.2 mm 10 mps 755 mmHg 75%
    16:00 0°C° 1.7 mm 10 mps 754 mmHg 79%
    17:00 -1°C° 1.7 mm 11 mps 752 mmHg 83%
    18:00 +1°C° 1.7 mm 11 mps 751 mmHg 87%
    19:00 +2°C° 0.7 mm 10 mps 751 mmHg 88%
    20:00 +2°C° 0.7 mm 9 mps 750 mmHg 89%
    21:00 +3°C° 0.7 mm 9 mps 749 mmHg 90%
    22:00 +4°C° 0 mm 8 mps 750 mmHg 89%
    23:00 +4°C° 0 mm 6 mps 750 mmHg 88%

    Tomorrow, 16 December, Sunday

    Time Temperature Precipitation Wind Pressure Humidity
    00:00 +5°C° 0 mm 5 mps 750 mmHg 87%
    01:00 +5°C° 0 mm 5 mps 751 mmHg 87%
    02:00 +3°C° 0 mm 5 mps 751 mmHg 87%
    03:00 +4°C° 0 mm 4 mps 752 mmHg 88%
    04:00 +3°C° 0 mm 4 mps 752 mmHg 89%
    05:00 +3°C° 0 mm 4 mps 752 mmHg 90%
    06:00 +3°C° 0 mm 4 mps 753 mmHg 91%
    07:00 +3°C° 0 mm 3 mps 753 mmHg 91%
    08:00 +3°C° 0 mm 3 mps 753 mmHg 92%
    09:00 +3°C° 0 mm 3 mps 753 mmHg 92%
    10:00 +4°C° 0 mm 3 mps 754 mmHg 88%
    11:00 +5°C° 0 mm 3 mps 754 mmHg 85%
    12:00 +7°C° 0 mm 3 mps 754 mmHg 81%
    13:00 +7°C° 0 mm 3 mps 754 mmHg 83%
    14:00 +7°C° 0 mm 3 mps 754 mmHg 85%
    15:00 +6°C° 0 mm 2 mps 754 mmHg 87%
    16:00 +6°C° 0 mm 2 mps 754 mmHg 89%
    17:00 +5°C° 0 mm 2 mps 754 mmHg 90%
    18:00 +5°C° 0 mm 2 mps 754 mmHg 91%
    19:00 +5°C° 0.1 mm 2 mps 755 mmHg 92%
    20:00 +5°C° 0.1 mm 2 mps 755 mmHg 93%
    21:00 +5°C° 0.1 mm 2 mps 755 mmHg 94%
    22:00 +5°C° 0.1 mm 2 mps 756 mmHg 95%
    23:00 +5°C° 0.1 mm 2 mps 756 mmHg 95%

    Day after tomorrow, 17 December, Monday

    Time Temperature Precipitation Wind Pressure Humidity
    00:00 +5°C° 0.1 mm 2 mps 756 mmHg 95%
    01:00 +4°C° 0 mm 2 mps 757 mmHg 94%
    02:00 +4°C° 0 mm 2 mps 757 mmHg 94%
    03:00 +2°C° 0 mm 3 mps 758 mmHg 93%
    04:00 +2°C° 0 mm 3 mps 758 mmHg 93%
    05:00 +2°C° 0 mm 3 mps 759 mmHg 92%
    06:00 +2°C° 0 mm 3 mps 759 mmHg 92%
    07:00 +2°C° 0 mm 3 mps 760 mmHg 92%
    08:00 +2°C° 0 mm 3 mps 761 mmHg 92%
    09:00 +2°C° 0 mm 3 mps 761 mmHg 92%
    10:00 +4°C° 0 mm 3 mps 762 mmHg 88%
    11:00 +5°C° 0 mm 4 mps 762 mmHg 85%
    12:00 +6°C° 0 mm 4 mps 762 mmHg 81%
    13:00 +6°C° 0 mm 4 mps 762 mmHg 83%
    14:00 +6°C° 0 mm 4 mps 762 mmHg 85%
    15:00 +7°C° 0 mm 3 mps 762 mmHg 87%
    16:00 +6°C° 0 mm 4 mps 762 mmHg 88%
    17:00 +6°C° 0 mm 4 mps 762 mmHg 89%
    18:00 +6°C° 0 mm 5 mps 762 mmHg 90%
    19:00 +6°C° 0 mm 5 mps 762 mmHg 90%
    20:00 +7°C° 0 mm 5 mps 762 mmHg 90%
    21:00 +7°C° 0 mm 6 mps 762 mmHg 90%
    22:00 +7°C° 0 mm 6 mps 762 mmHg 91%
    23:00 +7°C° 0 mm 6 mps 762 mmHg 91%

    18 December, Tuesday

    Time Temperature Precipitation Wind Pressure Humidity
    00:00 +7°C° 0 mm 6 mps 762 mmHg 91%
    01:00 +7°C° 0 mm 6 mps 761 mmHg 91%
    02:00 +7°C° 0 mm 6 mps 761 mmHg 91%
    03:00 +7°C° 0 mm 6 mps 760 mmHg 91%
    04:00 +7°C° 0 mm 6 mps 760 mmHg 90%
    05:00 +8°C° 0 mm 6 mps 760 mmHg 89%
    06:00 +8°C° 0 mm 7 mps 759 mmHg 88%
    07:00 +8°C° 0 mm 7 mps 759 mmHg 87%
    08:00 +6°C° 0 mm 8 mps 758 mmHg 86%
    09:00 +6°C° 0 mm 9 mps 758 mmHg 84%
    10:00 +7°C° 0 mm 9 mps 757 mmHg 79%
    11:00 +7°C° 0 mm 10 mps 756 mmHg 74%
    12:00 +7°C° 0 mm 10 mps 756 mmHg 69%
    13:00 +7°C° 0 mm 10 mps 755 mmHg 67%
    14:00 +7°C° 0 mm 10 mps 754 mmHg 66%
    15:00 +7°C° 0 mm 10 mps 753 mmHg 64%
    16:00 +7°C° 0 mm 9 mps 752 mmHg 66%
    17:00 +7°C° 0 mm 9 mps 752 mmHg 67%
    18:00 +7°C° 0 mm 9 mps 751 mmHg 68%
    19:00 +7°C° 0.6 mm 9 mps 751 mmHg 73%
    20:00 +7°C° 0.6 mm 9 mps 750 mmHg 78%
    21:00 +7°C° 0.6 mm 9 mps 750 mmHg 84%
    22:00 +7°C° 0.3 mm 9 mps 750 mmHg 83%
    23:00 +7°C° 0.3 mm 8 mps 751 mmHg 83%

    19 December, Wednesday

    Time Temperature Precipitation Wind Pressure Humidity
    00:00 +8°C° 0.3 mm 7 mps 751 mmHg 82%
    01:00 +7°C° 0 mm 6 mps 752 mmHg 83%
    02:00 +6°C° 0 mm 5 mps 753 mmHg 84%
    03:00 +5°C° 0 mm 4 mps 753 mmHg 84%
    04:00 +5°C° 0 mm 4 mps 754 mmHg 86%
    05:00 +5°C° 0 mm 4 mps 754 mmHg 88%
    06:00 +5°C° 0 mm 4 mps 755 mmHg 90%
    07:00 +5°C° 0 mm 4 mps 755 mmHg 90%
    08:00 +5°C° 0 mm 4 mps 755 mmHg 90%
    09:00 +5°C° 0 mm 4 mps 756 mmHg 90%
    10:00 +6°C° 0.1 mm 4 mps 756 mmHg 87%
    11:00 +7°C° 0.1 mm 4 mps 756 mmHg 84%
    12:00 +8°C° 0.1 mm 4 mps 756 mmHg 81%
    13:00 +7°C° 0 mm 4 mps 756 mmHg 83%
    14:00 +8°C° 0 mm 3 mps 756 mmHg 85%
    15:00 +7°C° 0 mm 3 mps 756 mmHg 87%
    16:00 +7°C° 0 mm 3 mps 756 mmHg 88%
    17:00 +5°C° 0 mm 3 mps 756 mmHg 89%
    18:00 +4°C° 0 mm 3 mps 757 mmHg 90%
    19:00 +4°C° 0 mm 3 mps 757 mmHg 89%
    20:00 +4°C° 0 mm 3 mps 757 mmHg 89%
    21:00 +4°C° 0 mm 3 mps 757 mmHg 89%
    22:00 +4°C° 0 mm 3 mps 757 mmHg 89%
    23:00 +4°C° 0 mm 3 mps 757 mmHg 89%

    20 December, Thursday

    Time Temperature Precipitation Wind Pressure Humidity
    00:00 +3°C° 0 mm 3 mps 757 mmHg 89%
    01:00 +3°C° 0 mm 3 mps 757 mmHg 89%
    02:00 +3°C° 0 mm 3 mps 758 mmHg 90%
    03:00 +3°C° 0 mm 3 mps 758 mmHg 90%
    04:00 +3°C° 0 mm 4 mps 758 mmHg 90%
    05:00 +3°C° 0 mm 4 mps 758 mmHg 90%
    06:00 +3°C° 0 mm 4 mps 758 mmHg 90%
    07:00 +3°C° 0 mm 4 mps 758 mmHg 90%
    08:00 +3°C° 0 mm 4 mps 759 mmHg 90%
    09:00 +3°C° 0 mm 4 mps 759 mmHg 90%
    10:00 +4°C° 0 mm 4 mps 759 mmHg 87%
    11:00 +6°C° 0 mm 4 mps 760 mmHg 84%
    12:00 +7°C° 0 mm 5 mps 760 mmHg 81%
    13:00 +6°C° 0 mm 4 mps 760 mmHg 82%
    14:00 +6°C° 0 mm 4 mps 760 mmHg 84%
    15:00 +7°C° 0 mm 3 mps 760 mmHg 85%
    16:00 +5°C° 0 mm 3 mps 761 mmHg 87%
    17:00 +5°C° 0 mm 4 mps 761 mmHg 88%
    18:00 +4°C° 0 mm 4 mps 761 mmHg 90%
    19:00 +5°C° 0 mm 4 mps 760 mmHg 88%
    20:00 +5°C° 0 mm 5 mps 760 mmHg 87%
    21:00 +5°C° 0 mm 5 mps 760 mmHg 86%
    22:00 +5°C° 0.4 mm 6 mps 759 mmHg 86%
    23:00 +5°C° 0.4 mm 7 mps 758 mmHg 86%
    Show more